Flag for Namibia Weather past 2 weeks in Windhoek, Namibia

Now
50 °F

Cool.


Feels Like: 45 °F
Forecast: 36 / 72 °F
Wind: 13 mph from East

Location: Windhoek

Current Time: Jul 31, 2015 at 10:55:51 PM

Latest Report: Jul 31, 2015 at 10:00 PM


Visibility: N/A

Pressure: 30.33 "Hg (24.76 "Hg at 1680m altitude)

Humidity: 22%

Dew point: 12 °F

Location of WindhoekLocation

Historic Weather in Windhoek — Graph

°F

Windhoek temperature yesterday

Maximum temperature yesterday: 72 °F (at 2:00 PM)
Minimum temperature yesterday: 39 °F (at 4:00 AM)
Average temperature yesterday: 54 °F

Past Weeks' High & Low Weather Summary

 TemperatureHumidityPressure
High77 °F (Jul 19, 1:00 PM)65% (Jul 25, 7:00 AM)30.36 "Hg (Jul 25, 7:00 AM)
Low32 °F (Jul 26, 6:00 AM)2% (Jul 30, 12:00 PM)30.12 "Hg (Jul 20, 3:00 PM)
Average55 °F21%30.22 "Hg
* Reported Jul 17 3:00 AM — Jul 31 9:00 PM, Windhoek, Weather by CustomWeather, © 2015

Note: Actual official high and low records may vary slightly from our data, if they occured in-between our weather recording intervals... More about our weather records

Advertising

Windhoek weather history for previous 24 hours

 ConditionsComfort  
Time TempWeatherWind HumidityBarometerVisibility
9:00 PM
Fri, Jul 31
52 °FCool.12 mph19%30.36 "HgN/A
8:00 PM52 °FCool.9 mph19%30.33 "HgN/A
7:00 PM54 °FClear.6 mph16%30.33 "Hg10 mi
6:00 PM57 °FClear.7 mph15%30.30 "Hg10 mi
5:00 PM63 °FClear.12 mph11%30.30 "Hg10 mi
4:00 PM64 °FSunny.12 mph8%30.27 "Hg10 mi
3:00 PM66 °FSunny.13 mph9%30.27 "Hg10 mi
2:00 PM68 °FSunny.12 mph10%30.27 "Hg10 mi
1:00 PM66 °FSunny.13 mph7%30.30 "Hg10 mi
12:00 PM64 °FSunny.13 mph8%30.33 "Hg10 mi
11:00 AM64 °FSunny.13 mph9%30.36 "Hg10 mi
10:00 AM61 °FRefreshingly cool.12 mph12%30.36 "HgN/A
9:00 AM55 °FSunny.13 mph16%30.36 "Hg10 mi
8:00 AM52 °FSunny.9 mph20%30.33 "Hg10 mi
7:00 AM45 °FSunny.8 mph27%30.33 "Hg10 mi
6:00 AM41 °FSunny.7 mph28%30.27 "Hg10 mi
5:00 AM43 °FClear.7 mph24%30.27 "Hg10 mi
4:00 AM43 °FClear.9 mph22%30.24 "Hg10 mi
3:00 AM43 °FQuite cool.9 mph19%30.30 "HgN/A
2:00 AM43 °FQuite cool.9 mph19%30.27 "HgN/A
1:00 AM45 °FQuite cool.9 mph18%30.30 "HgN/A
12:00 AM45 °FQuite cool.9 mph16%30.30 "HgN/A
11:00 PM
Thu, Jul 30
45 °FQuite cool.9 mph15%30.30 "HgN/A
10:00 PM46 °FCool.7 mph14%30.27 "HgN/A
Weather by CustomWeather, © 2015

See weather overviewHow to use our weather pages